Private Wetterstation Sandau
Wetterdaten: Mittwoch, 24.10.2012
Datum Zeit Temp. A. Feuchte A. Luftdruck Regen Wind Richtung Richtung Taupunkt Windchill
24.10.2012 00:01 11,3 C 91 % 1026,1 hPa 0,0 l/m 2,2 km/h (1 Bft) O 90 9,9 C 11,3 C
24.10.2012 00:06 11,2 C 91 % 1026,1 hPa 0,0 l/m 2,2 km/h (1 Bft) N-NO 22 9,8 C 11,2 C
24.10.2012 00:11 11,2 C 91 % 1026,1 hPa 0,0 l/m 1,4 km/h (1 Bft) O-NO 67 9,8 C 11,2 C
24.10.2012 00:16 11,2 C 91 % 1025,8 hPa 0,0 l/m 1,4 km/h (1 Bft) N-NO 22 9,8 C 11,2 C
24.10.2012 00:21 11,2 C 91 % 1025,7 hPa 0,0 l/m 1,1 km/h (1 Bft) N 360 9,8 C 11,2 C
24.10.2012 00:26 11,2 C 91 % 1025,8 hPa 0,0 l/m 1,4 km/h (1 Bft) NO 45 9,8 C 11,2 C
24.10.2012 00:31 11,2 C 91 % 1025,7 hPa 0,0 l/m 0,0 km/h (0 Bft) NO 45 9,8 C 11,2 C
24.10.2012 00:36 11,2 C 91 % 1025,6 hPa 0,0 l/m 0,0 km/h (0 Bft) NO 45 9,8 C 11,2 C
24.10.2012 00:41 11,2 C 91 % 1025,5 hPa 0,0 l/m 1,8 km/h (1 Bft) NO 45 9,8 C 11,2 C
24.10.2012 00:46 11,2 C 91 % 1025,6 hPa 0,0 l/m 0,0 km/h (0 Bft) NO 45 9,8 C 11,2 C
24.10.2012 00:51 11,2 C 91 % 1025,4 hPa 0,0 l/m 2,9 km/h (1 Bft) NO 45 9,8 C 11,2 C
24.10.2012 00:56 11,2 C 91 % 1025,4 hPa 0,0 l/m 0,0 km/h (0 Bft) NO 45 9,8 C 11,2 C
24.10.2012 01:01 11,3 C 91 % 1025,2 hPa 0,0 l/m 1,1 km/h (1 Bft) NO 45 9,9 C 11,3 C
24.10.2012 01:06 11,3 C 91 % 1025,2 hPa 0,0 l/m 0,0 km/h (0 Bft) NO 45 9,9 C 11,3 C
24.10.2012 01:11 11,3 C 91 % 1025,1 hPa 0,0 l/m 0,0 km/h (0 Bft) O-NO 67 9,9 C 11,3 C
24.10.2012 01:16 11,3 C 91 % 1025,0 hPa 0,0 l/m 1,1 km/h (1 Bft) O-NO 67 9,9 C 11,3 C
24.10.2012 01:21 11,3 C 91 % 1025,0 hPa 0,0 l/m 0,0 km/h (0 Bft) NO 45 9,9 C 11,3 C
24.10.2012 01:26 11,3 C 91 % 1025,1 hPa 0,0 l/m 1,1 km/h (1 Bft) NO 45 9,9 C 11,3 C
24.10.2012 01:31 11,3 C 91 % 1025,1 hPa 0,0 l/m 0,0 km/h (0 Bft) NO 45 9,9 C 11,3 C
24.10.2012 01:36 11,3 C 91 % 1025,1 hPa 0,0 l/m 2,2 km/h (1 Bft) NO 45 9,9 C 11,3 C
24.10.2012 01:41 11,3 C 91 % 1025,0 hPa 0,0 l/m 3,2 km/h (1 Bft) O-NO 67 9,9 C 11,3 C
24.10.2012 01:46 11,3 C 91 % 1025,1 hPa 0,0 l/m 0,0 km/h (0 Bft) NO 45 9,9 C 11,3 C
24.10.2012 01:51 11,3 C 91 % 1025,0 hPa 0,0 l/m 0,0 km/h (0 Bft) NO 45 9,9 C 11,3 C
24.10.2012 01:56 11,3 C 91 % 1025,0 hPa 0,0 l/m 0,0 km/h (0 Bft) NO 45 9,9 C 11,3 C
24.10.2012 02:01 11,3 C 91 % 1025,0 hPa 0,0 l/m 0,0 km/h (0 Bft) NO 45 9,9 C 11,3 C
24.10.2012 02:06 11,3 C 91 % 1024,9 hPa 0,0 l/m 0,0 km/h (0 Bft) NO 45 9,9 C 11,3 C
24.10.2012 02:11 11,3 C 91 % 1024,9 hPa 0,0 l/m 0,0 km/h (0 Bft) NO 45 9,9 C 11,3 C
24.10.2012 02:16 11,3 C 91 % 1025,0 hPa 0,0 l/m 0,0 km/h (0 Bft) NO 45 9,9 C 11,3 C
24.10.2012 02:21 11,3 C 91 % 1024,8 hPa 0,0 l/m 0,0 km/h (0 Bft) NO 45 9,9 C 11,3 C
24.10.2012 02:26 11,3 C 91 % 1024,8 hPa 0,0 l/m 0,0 km/h (0 Bft) NO 45 9,9 C 11,3 C
24.10.2012 02:31 11,3 C 91 % 1024,9 hPa 0,0 l/m 0,0 km/h (0 Bft) NO 45 9,9 C 11,3 C
24.10.2012 02:36 11,3 C 91 % 1024,7 hPa 0,0 l/m 0,0 km/h (0 Bft) N-NW 337 9,9 C 11,3 C
24.10.2012 02:41 11,3 C 91 % 1024,7 hPa 0,0 l/m 0,0 km/h (0 Bft) N-NW 337 9,9 C 11,3 C
24.10.2012 02:46 11,3 C 91 % 1024,6 hPa 0,0 l/m 0,0 km/h (0 Bft) N-NW 337 9,9 C 11,3 C
24.10.2012 02:51 11,3 C 91 % 1024,5 hPa 0,0 l/m 0,0 km/h (0 Bft) N-NW 337 9,9 C 11,3 C
24.10.2012 02:56 11,3 C 91 % 1024,6 hPa 0,0 l/m 0,0 km/h (0 Bft) N-NW 337 9,9 C 11,3 C
24.10.2012 03:01 11,3 C 91 % 1024,6 hPa 0,0 l/m 0,0 km/h (0 Bft) N-NW 337 9,9 C 11,3 C
24.10.2012 03:06 11,3 C 91 % 1024,5 hPa 0,0 l/m 0,0 km/h (0 Bft) SW 225 9,9 C 11,3 C
24.10.2012 03:11 11,3 C 91 % 1024,6 hPa 0,0 l/m 0,0 km/h (0 Bft) SW 225 9,9 C 11,3 C
24.10.2012 03:16 11,3 C 91 % 1024,4 hPa 0,0 l/m 0,0 km/h (0 Bft) SW 225 9,9 C 11,3 C
24.10.2012 03:21 11,3 C 91 % 1024,4 hPa 0,0 l/m 0,0 km/h (0 Bft) SW 225 9,9 C 11,3 C
24.10.2012 03:26 11,3 C 91 % 1024,3 hPa 0,0 l/m 1,1 km/h (1 Bft) N-NO 22 9,9 C 11,3 C
24.10.2012 03:31 11,2 C 91 % 1024,3 hPa 0,0 l/m 2,5 km/h (1 Bft) N-NO 22 9,8 C 11,2 C
24.10.2012 03:36 11,2 C 91 % 1024,3 hPa 0,0 l/m 0,0 km/h (0 Bft) NO 45 9,8 C 11,2 C
24.10.2012 03:41 11,2 C 91 % 1024,2 hPa 0,0 l/m 0,0 km/h (0 Bft) NO 45 9,8 C 11,2 C
24.10.2012 03:46 11,2 C 91 % 1024,1 hPa 0,0 l/m 0,0 km/h (0 Bft) NO 45 9,8 C 11,2 C
24.10.2012 03:51 11,2 C 91 % 1024,2 hPa 0,0 l/m 0,0 km/h (0 Bft) NO 45 9,8 C 11,2 C
24.10.2012 03:56 11,2 C 91 % 1024,2 hPa 0,0 l/m 0,0 km/h (0 Bft) NO 45 9,8 C 11,2 C
24.10.2012 04:01 11,2 C 91 % 1024,1 hPa 0,0 l/m 0,0 km/h (0 Bft) NO 45 9,8 C 11,2 C
24.10.2012 04:06 11,2 C 91 % 1024,0 hPa 0,0 l/m 0,0 km/h (0 Bft) NO 45 9,8 C 11,2 C
24.10.2012 04:11 11,2 C 91 % 1023,9 hPa 0,0 l/m 2,2 km/h (1 Bft) NO 45 9,8 C 11,2 C
24.10.2012 04:16 11,2 C 91 % 1024,0 hPa 0,0 l/m 0,0 km/h (0 Bft) NO 45 9,8 C 11,2 C
24.10.2012 04:21 11,2 C 91 % 1024,0 hPa 0,0 l/m 0,0 km/h (0 Bft) NO 45 9,8 C 11,2 C
24.10.2012 04:26 11,2 C 91 % 1023,9 hPa 0,0 l/m 2,2 km/h (1 Bft) NO 45 9,8 C 11,2 C
24.10.2012 04:31 11,2 C 91 % 1023,9 hPa 0,0 l/m 0,0 km/h (0 Bft) NO 45 9,8 C 11,2 C
24.10.2012 04:36 11,2 C 91 % 1023,9 hPa 0,0 l/m 1,8 km/h (1 Bft) O-NO 67 9,8 C 11,2 C
24.10.2012 04:41 11,2 C 91 % 1023,9 hPa 0,0 l/m 2,2 km/h (1 Bft) O-NO 67 9,8 C 11,2 C
24.10.2012 04:46 11,2 C 91 % 1023,9 hPa 0,0 l/m 3,2 km/h (1 Bft) O-NO 67 9,8 C 11,2 C
24.10.2012 04:51 11,1 C 91 % 1023,6 hPa 0,0 l/m 0,0 km/h (0 Bft) O-NO 67 9,7 C 11,1 C
24.10.2012 04:56 11,2 C 91 % 1023,6 hPa 0,0 l/m 0,0 km/h (0 Bft) O-NO 67 9,8 C 11,2 C
24.10.2012 05:01 11,1 C 91 % 1023,4 hPa 0,0 l/m 3,2 km/h (1 Bft) O-NO 67 9,7 C 11,1 C
24.10.2012 05:06 11,1 C 91 % 1023,3 hPa 0,0 l/m 0,0 km/h (0 Bft) O-NO 67 9,7 C 11,1 C
24.10.2012 05:11 11,1 C 91 % 1023,3 hPa 0,0 l/m 0,0 km/h (0 Bft) O-NO 67 9,7 C 11,1 C
24.10.2012 05:16 11,1 C 91 % 1023,3 hPa 0,0 l/m 0,0 km/h (0 Bft) O-NO 67 9,7 C 11,1 C
24.10.2012 05:21 11,1 C 91 % 1023,4 hPa 0,0 l/m 0,0 km/h (0 Bft) O-NO 67 9,7 C 11,1 C
24.10.2012 05:26 11,1 C 91 % 1023,2 hPa 0,0 l/m 0,0 km/h (0 Bft) O-NO 67 9,7 C 11,1 C
24.10.2012 05:31 11,1 C 91 % 1023,2 hPa 0,0 l/m 1,8 km/h (1 Bft) O-NO 67 9,7 C 11,1 C
24.10.2012 05:36 11,1 C 91 % 1023,1 hPa 0,0 l/m 3,2 km/h (1 Bft) O-NO 67 9,7 C 11,1 C
24.10.2012 05:41 11,1 C 91 % 1023,0 hPa 0,0 l/m 3,6 km/h (1 Bft) O-NO 67 9,7 C 11,1 C
24.10.2012 05:46 11,1 C 92 % 1022,9 hPa 0,0 l/m 0,0 km/h (0 Bft) O-NO 67 9,8 C 11,1 C
24.10.2012 05:51 11,1 C 92 % 1022,9 hPa 0,0 l/m 1,8 km/h (1 Bft) O-NO 67 9,8 C 11,1 C
24.10.2012 05:56 11,1 C 92 % 1022,8 hPa 0,0 l/m 1,4 km/h (1 Bft) O-SO 112 9,8 C 11,1 C
24.10.2012 06:01 11,1 C 92 % 1022,9 hPa 0,0 l/m 0,0 km/h (0 Bft) O-SO 112 9,8 C 11,1 C
24.10.2012 06:06 11,0 C 92 % 1022,6 hPa 0,0 l/m 3,6 km/h (1 Bft) O-SO 112 9,8 C 11,0 C
24.10.2012 06:11 11,0 C 92 % 1022,6 hPa 0,0 l/m 1,8 km/h (1 Bft) O 90 9,8 C 11,0 C
24.10.2012 06:16 11,0 C 92 % 1022,7 hPa 0,0 l/m 3,2 km/h (1 Bft) O-NO 67 9,8 C 11,0 C
24.10.2012 06:21 11,0 C 92 % 1022,7 hPa 0,0 l/m 1,8 km/h (1 Bft) O-NO 67 9,8 C 11,0 C
24.10.2012 06:26 10,9 C 92 % 1022,7 hPa 0,0 l/m 1,4 km/h (1 Bft) O-NO 67 9,7 C 10,9 C
24.10.2012 06:31 10,9 C 92 % 1022,6 hPa 0,0 l/m 4,0 km/h (1 Bft) O-SO 112 9,7 C 10,9 C
24.10.2012 06:36 11,0 C 92 % 1022,6 hPa 0,0 l/m 3,6 km/h (1 Bft) O-SO 112 9,8 C 11,0 C
24.10.2012 06:41 11,0 C 92 % 1022,6 hPa 0,0 l/m 1,1 km/h (1 Bft) O-SO 112 9,8 C 11,0 C
24.10.2012 06:46 11,0 C 92 % 1022,7 hPa 0,0 l/m 2,2 km/h (1 Bft) O-SO 112 9,8 C 11,0 C
24.10.2012 06:51 10,9 C 92 % 1022,7 hPa 0,0 l/m 1,8 km/h (1 Bft) O-SO 112 9,7 C 10,9 C
24.10.2012 06:56 10,9 C 92 % 1022,8 hPa 0,0 l/m 1,4 km/h (1 Bft) O-SO 112 9,7 C 10,9 C
24.10.2012 07:01 10,9 C 92 % 1022,9 hPa 0,0 l/m 0,0 km/h (0 Bft) O-SO 112 9,7 C 10,9 C
24.10.2012 07:06 10,9 C 92 % 1022,8 hPa 0,0 l/m 1,1 km/h (1 Bft) O-SO 112 9,7 C 10,9 C
24.10.2012 07:11 10,9 C 92 % 1022,5 hPa 0,0 l/m 0,0 km/h (0 Bft) O-SO 112 9,7 C 10,9 C
24.10.2012 07:16 10,9 C 92 % 1022,5 hPa 0,0 l/m 0,0 km/h (0 Bft) O-SO 112 9,7 C 10,9 C
24.10.2012 07:21 10,9 C 92 % 1022,6 hPa 0,0 l/m 1,1 km/h (1 Bft) O-SO 112 9,7 C 10,9 C
24.10.2012 07:26 11,0 C 92 % 1022,7 hPa 0,0 l/m 0,0 km/h (0 Bft) O-SO 112 9,8 C 11,0 C
24.10.2012 07:31 10,9 C 92 % 1022,7 hPa 0,0 l/m 0,0 km/h (0 Bft) O-SO 112 9,7 C 10,9 C
24.10.2012 07:36 10,9 C 92 % 1022,7 hPa 0,0 l/m 0,0 km/h (0 Bft) O-SO 112 9,7 C 10,9 C
24.10.2012 07:41 10,9 C 92 % 1022,9 hPa 0,0 l/m 0,0 km/h (0 Bft) O-SO 112 9,7 C 10,9 C
24.10.2012 07:46 10,9 C 92 % 1022,9 hPa 0,0 l/m 0,0 km/h (0 Bft) O-SO 112 9,7 C 10,9 C
24.10.2012 07:51 10,9 C 92 % 1022,6 hPa 0,0 l/m 0,0 km/h (0 Bft) O-SO 112 9,7 C 10,9 C
24.10.2012 07:56 10,9 C 92 % 1022,8 hPa 0,0 l/m 0,0 km/h (0 Bft) O-SO 112 9,7 C 10,9 C
24.10.2012 08:01 10,9 C 92 % 1022,8 hPa 0,0 l/m 0,0 km/h (0 Bft) O-SO 112 9,7 C 10,9 C
24.10.2012 08:06 10,9 C 92 % 1022,9 hPa 0,0 l/m 0,0 km/h (0 Bft) O-SO 112 9,7 C 10,9 C
24.10.2012 08:11 10,9 C 92 % 1022,8 hPa 0,0 l/m 0,0 km/h (0 Bft) O-SO 112 9,7 C 10,9 C
24.10.2012 08:16 10,9 C 92 % 1022,8 hPa 0,0 l/m 0,0 km/h (0 Bft) O-SO 112 9,7 C 10,9 C
24.10.2012 08:21 10,9 C 92 % 1022,7 hPa 0,0 l/m 0,0 km/h (0 Bft) O-SO 112 9,7 C 10,9 C
24.10.2012 08:26 10,9 C 92 % 1022,9 hPa 0,0 l/m 0,0 km/h (0 Bft) O-SO 112 9,7 C 10,9 C
24.10.2012 08:31 10,9 C 92 % 1023,0 hPa 0,0 l/m 0,0 km/h (0 Bft) O-SO 112 9,7 C 10,9 C
24.10.2012 08:36 10,9 C 92 % 1022,8 hPa 0,0 l/m 0,0 km/h (0 Bft) O-SO 112 9,7 C 10,9 C
24.10.2012 08:41 10,9 C 92 % 1022,8 hPa 0,0 l/m 0,0 km/h (0 Bft) O-SO 112 9,7 C 10,9 C
24.10.2012 08:46 10,9 C 92 % 1022,9 hPa 0,0 l/m 0,0 km/h (0 Bft) O-SO 112 9,7 C 10,9 C
24.10.2012 08:51 10,9 C 92 % 1022,9 hPa 0,0 l/m 0,0 km/h (0 Bft) O-SO 112 9,7 C 10,9 C
24.10.2012 08:56 10,9 C 92 % 1022,8 hPa 0,0 l/m 0,0 km/h (0 Bft) O-SO 112 9,7 C 10,9 C
24.10.2012 09:01 11,0 C 92 % 1022,7 hPa 0,0 l/m 0,0 km/h (0 Bft) O-SO 112 9,8 C 11,0 C
24.10.2012 09:06 11,0 C 92 % 1022,7 hPa 0,0 l/m 0,0 km/h (0 Bft) O-SO 112 9,8 C 11,0 C
24.10.2012 09:11 11,0 C 92 % 1022,8 hPa 0,0 l/m 0,0 km/h (0 Bft) O-SO 112 9,8 C 11,0 C
24.10.2012 09:16 11,1 C 92 % 1022,8 hPa 0,0 l/m 0,0 km/h (0 Bft) O-SO 112 9,8 C 11,1 C
24.10.2012 09:21 11,1 C 92 % 1022,8 hPa 0,0 l/m 0,0 km/h (0 Bft) O-SO 112 9,8 C 11,1 C
24.10.2012 09:26 11,1 C 92 % 1022,9 hPa 0,0 l/m 0,0 km/h (0 Bft) O-SO 112 9,8 C 11,1 C
24.10.2012 09:31 11,1 C 92 % 1022,9 hPa 0,0 l/m 0,0 km/h (0 Bft) O-SO 112 9,8 C 11,1 C
24.10.2012 09:36 11,2 C 92 % 1022,8 hPa 0,0 l/m 0,0 km/h (0 Bft) O-SO 112 9,9 C 11,2 C
24.10.2012 09:41 11,2 C 92 % 1022,7 hPa 0,0 l/m 0,0 km/h (0 Bft) O-SO 112 9,9 C 11,2 C
24.10.2012 09:46 11,3 C 92 % 1022,6 hPa 0,0 l/m 0,0 km/h (0 Bft) O-SO 112 10,0 C 11,3 C
24.10.2012 09:51 11,3 C 92 % 1022,6 hPa 0,0 l/m 0,0 km/h (0 Bft) O-SO 112 10,0 C 11,3 C
24.10.2012 09:56 11,3 C 91 % 1022,6 hPa 0,0 l/m 1,4 km/h (1 Bft) O-SO 112 9,9 C 11,3 C
24.10.2012 10:01 11,4 C 91 % 1022,5 hPa 0,0 l/m 0,0 km/h (0 Bft) O-SO 112 10,0 C 11,4 C
24.10.2012 10:06 11,4 C 91 % 1022,5 hPa 0,0 l/m 0,0 km/h (0 Bft) O-SO 112 10,0 C 11,4 C
24.10.2012 10:11 11,5 C 91 % 1022,6 hPa 0,0 l/m 0,0 km/h (0 Bft) O-SO 112 10,1 C 11,5 C
24.10.2012 10:16 11,6 C 92 % 1022,6 hPa 0,0 l/m 0,0 km/h (0 Bft) O 90 10,3 C 11,6 C
24.10.2012 10:21 11,6 C 92 % 1022,6 hPa 0,0 l/m 0,0 km/h (0 Bft) O 90 10,3 C 11,6 C
24.10.2012 10:26 11,6 C 92 % 1022,5 hPa 0,0 l/m 0,0 km/h (0 Bft) O 90 10,3 C 11,6 C
24.10.2012 10:31 11,7 C 92 % 1022,5 hPa 0,0 l/m 2,2 km/h (1 Bft) O 90 10,4 C 11,7 C
24.10.2012 10:36 11,8 C 91 % 1022,5 hPa 0,0 l/m 1,4 km/h (1 Bft) N 360 10,4 C 11,8 C
24.10.2012 10:41 11,8 C 91 % 1022,5 hPa 0,0 l/m 0,0 km/h (0 Bft) N-NO 22 10,4 C 11,8 C
24.10.2012 10:46 11,8 C 91 % 1022,5 hPa 0,0 l/m 3,2 km/h (1 Bft) N-NW 337 10,4 C 11,8 C
24.10.2012 10:51 11,8 C 91 % 1022,5 hPa 0,0 l/m 0,0 km/h (0 Bft) N-NO 22 10,4 C 11,8 C
24.10.2012 10:56 11,9 C 91 % 1022,5 hPa 0,0 l/m 0,0 km/h (0 Bft) NW 315 10,5 C 11,9 C
24.10.2012 11:01 11,9 C 91 % 1022,5 hPa 0,0 l/m 2,5 km/h (1 Bft) N-NW 337 10,5 C 11,9 C
24.10.2012 11:06 11,9 C 91 % 1022,6 hPa 0,0 l/m 3,6 km/h (1 Bft) N-NW 337 10,5 C 11,9 C
24.10.2012 11:11 11,9 C 91 % 1022,4 hPa 0,0 l/m 0,0 km/h (0 Bft) N-NO 22 10,5 C 11,9 C
24.10.2012 11:16 12,0 C 90 % 1022,3 hPa 0,0 l/m 1,8 km/h (1 Bft) N-NO 22 10,4 C 12,0 C
24.10.2012 11:21 11,9 C 90 % 1022,2 hPa 0,0 l/m 2,9 km/h (1 Bft) N 360 10,3 C 11,9 C
24.10.2012 11:26 11,9 C 89 % 1022,4 hPa 0,0 l/m 2,5 km/h (1 Bft) N 360 10,1 C 11,9 C
24.10.2012 11:31 11,9 C 89 % 1022,4 hPa 0,0 l/m 4,0 km/h (1 Bft) N 360 10,1 C 11,9 C
24.10.2012 11:36 11,9 C 89 % 1022,4 hPa 0,0 l/m 1,4 km/h (1 Bft) N 360 10,1 C 11,9 C
24.10.2012 11:41 11,9 C 89 % 1022,3 hPa 0,0 l/m 1,4 km/h (1 Bft) NO 45 10,1 C 11,9 C
24.10.2012 11:46 12,1 C 89 % 1022,4 hPa 0,0 l/m 0,0 km/h (0 Bft) N 360 10,3 C 12,1 C
24.10.2012 11:51 12,1 C 90 % 1022,4 hPa 0,0 l/m 3,2 km/h (1 Bft) N 360 10,5 C 12,1 C
24.10.2012 11:56 12,2 C 89 % 1022,3 hPa 0,0 l/m 0,0 km/h (0 Bft) N-NW 337 10,4 C 12,2 C
24.10.2012 12:01 12,3 C 89 % 1022,3 hPa 0,0 l/m 0,0 km/h (0 Bft) N 360 10,5 C 12,3 C
24.10.2012 12:06 12,4 C 89 % 1022,3 hPa 0,0 l/m 0,0 km/h (0 Bft) N 360 10,6 C 12,4 C
24.10.2012 12:11 12,4 C 89 % 1022,3 hPa 0,0 l/m 0,0 km/h (0 Bft) N-NO 22 10,6 C 12,4 C
24.10.2012 12:16 12,5 C 89 % 1022,3 hPa 0,0 l/m 0,0 km/h (0 Bft) NW 315 10,7 C 12,5 C
24.10.2012 12:21 12,6 C 89 % 1022,2 hPa 0,0 l/m 0,0 km/h (0 Bft) N-NO 22 10,8 C 12,6 C
24.10.2012 12:26 12,8 C 89 % 1022,1 hPa 0,0 l/m 0,0 km/h (0 Bft) N-NO 22 11,0 C 12,8 C
24.10.2012 12:31 12,8 C 88 % 1022,1 hPa 0,0 l/m 1,8 km/h (1 Bft) N 360 10,9 C 12,8 C
24.10.2012 12:36 12,9 C 88 % 1022,1 hPa 0,0 l/m 0,0 km/h (0 Bft) N-NO 22 11,0 C 12,9 C
24.10.2012 12:41 12,9 C 88 % 1021,9 hPa 0,0 l/m 0,0 km/h (0 Bft) N 360 11,0 C 12,9 C
24.10.2012 12:46 12,9 C 88 % 1021,8 hPa 0,0 l/m 0,0 km/h (0 Bft) NO 45 11,0 C 12,9 C
24.10.2012 12:51 13,1 C 88 % 1021,8 hPa 0,0 l/m 2,2 km/h (1 Bft) NW 315 11,2 C 13,1 C
24.10.2012 12:56 13,2 C 87 % 1021,8 hPa 0,0 l/m 4,0 km/h (1 Bft) W 270 11,1 C 13,2 C
24.10.2012 13:01 13,3 C 87 % 1021,7 hPa 0,0 l/m 0,0 km/h (0 Bft) N-NW 337 11,2 C 13,3 C
24.10.2012 13:06 13,4 C 87 % 1021,6 hPa 0,0 l/m 0,0 km/h (0 Bft) W-NW 292 11,3 C 13,4 C
24.10.2012 13:11 13,4 C 86 % 1021,6 hPa 0,0 l/m 4,0 km/h (1 Bft) W-SW 247 11,1 C 13,4 C
24.10.2012 13:16 13,3 C 86 % 1021,6 hPa 0,0 l/m 2,5 km/h (1 Bft) NW 315 11,0 C 13,3 C
24.10.2012 13:21 13,2 C 86 % 1021,6 hPa 0,0 l/m 1,1 km/h (1 Bft) NW 315 10,9 C 13,2 C
24.10.2012 13:26 13,1 C 86 % 1021,5 hPa 0,0 l/m 0,0 km/h (0 Bft) N 360 10,8 C 13,1 C
24.10.2012 13:31 12,9 C 86 % 1021,6 hPa 0,0 l/m 2,2 km/h (1 Bft) NW 315 10,6 C 12,9 C
24.10.2012 13:36 12,9 C 86 % 1021,5 hPa 0,0 l/m 0,0 km/h (0 Bft) W-NW 292 10,6 C 12,9 C
24.10.2012 13:41 12,8 C 87 % 1021,6 hPa 0,0 l/m 0,0 km/h (0 Bft) W-NW 292 10,7 C 12,8 C
24.10.2012 13:46 12,8 C 87 % 1021,5 hPa 0,0 l/m 0,0 km/h (0 Bft) W-NW 292 10,7 C 12,8 C
24.10.2012 13:51 12,7 C 87 % 1021,5 hPa 0,0 l/m 1,8 km/h (1 Bft) W-NW 292 10,6 C 12,7 C
24.10.2012 13:56 12,7 C 87 % 1021,4 hPa 0,0 l/m 0,0 km/h (0 Bft) W-NW 292 10,6 C 12,7 C
24.10.2012 14:01 12,8 C 87 % 1021,5 hPa 0,0 l/m 1,1 km/h (1 Bft) W-NW 292 10,7 C 12,8 C
24.10.2012 14:06 12,8 C 87 % 1021,4 hPa 0,0 l/m 0,0 km/h (0 Bft) W-NW 292 10,7 C 12,8 C
24.10.2012 14:11 12,7 C 87 % 1021,3 hPa 0,0 l/m 0,0 km/h (0 Bft) W-NW 292 10,6 C 12,7 C
24.10.2012 14:16 12,7 C 87 % 1021,1 hPa 0,0 l/m 0,0 km/h (0 Bft) N-NO 22 10,6 C 12,7 C
24.10.2012 14:21 12,6 C 87 % 1021,1 hPa 0,0 l/m 0,0 km/h (0 Bft) W-NW 292 10,5 C 12,6 C
24.10.2012 14:26 12,6 C 87 % 1021,1 hPa 0,0 l/m 0,0 km/h (0 Bft) N-NW 337 10,5 C 12,6 C
24.10.2012 14:31 12,6 C 87 % 1021,1 hPa 0,0 l/m 0,0 km/h (0 Bft) N-NW 337 10,5 C 12,6 C
24.10.2012 14:36 12,6 C 87 % 1021,0 hPa 0,0 l/m 1,8 km/h (1 Bft) W-NW 292 10,5 C 12,6 C
24.10.2012 14:41 12,6 C 87 % 1021,0 hPa 0,0 l/m 0,0 km/h (0 Bft) W-NW 292 10,5 C 12,6 C
24.10.2012 14:46 12,6 C 87 % 1021,0 hPa 0,0 l/m 0,0 km/h (0 Bft) W-NW 292 10,5 C 12,6 C
24.10.2012 14:51 12,6 C 87 % 1021,0 hPa 0,0 l/m 0,0 km/h (0 Bft) W-NW 292 10,5 C 12,6 C
24.10.2012 14:56 12,6 C 87 % 1021,0 hPa 0,0 l/m 4,0 km/h (1 Bft) NW 315 10,5 C 12,6 C
24.10.2012 15:01 12,5 C 87 % 1021,0 hPa 0,0 l/m 1,8 km/h (1 Bft) NW 315 10,4 C 12,5 C
24.10.2012 15:06 12,6 C 87 % 1020,9 hPa 0,0 l/m 4,0 km/h (1 Bft) NW 315 10,5 C 12,6 C
24.10.2012 15:11 12,6 C 87 % 1021,0 hPa 0,0 l/m 4,3 km/h (1 Bft) W-NW 292 10,5 C 12,6 C
24.10.2012 15:16 12,6 C 87 % 1020,9 hPa 0,0 l/m 2,5 km/h (1 Bft) W 270 10,5 C 12,6 C
24.10.2012 15:21 12,5 C 87 % 1020,9 hPa 0,0 l/m 0,0 km/h (0 Bft) W-NW 292 10,4 C 12,5 C
24.10.2012 15:26 12,5 C 88 % 1020,9 hPa 0,0 l/m 0,0 km/h (0 Bft) W-NW 292 10,6 C 12,5 C
24.10.2012 15:31 12,4 C 88 % 1020,8 hPa 0,0 l/m 3,2 km/h (1 Bft) W-SW 247 10,5 C 12,4 C
24.10.2012 15:36 12,4 C 88 % 1020,6 hPa 0,0 l/m 2,2 km/h (1 Bft) W-NW 292 10,5 C 12,4 C
24.10.2012 15:41 12,4 C 88 % 1020,5 hPa 0,0 l/m 0,0 km/h (0 Bft) W 270 10,5 C 12,4 C
24.10.2012 15:46 12,4 C 88 % 1020,6 hPa 0,0 l/m 2,9 km/h (1 Bft) W 270 10,5 C 12,4 C
24.10.2012 15:51 12,4 C 88 % 1020,7 hPa 0,0 l/m 0,0 km/h (0 Bft) W-SW 247 10,5 C 12,4 C
24.10.2012 15:56 12,4 C 88 % 1020,5 hPa 0,0 l/m 0,0 km/h (0 Bft) W-SW 247 10,5 C 12,4 C
24.10.2012 16:01 12,4 C 88 % 1020,5 hPa 0,0 l/m 6,1 km/h (2 Bft) W-SW 247 10,5 C 12,4 C
24.10.2012 16:06 12,3 C 88 % 1020,5 hPa 0,0 l/m 0,0 km/h (0 Bft) W 270 10,4 C 12,3 C
24.10.2012 16:11 12,3 C 88 % 1020,4 hPa 0,0 l/m 4,0 km/h (1 Bft) W 270 10,4 C 12,3 C
24.10.2012 16:16 12,3 C 88 % 1020,3 hPa 0,0 l/m 2,9 km/h (1 Bft) W-SW 247 10,4 C 12,3 C
24.10.2012 16:21 12,3 C 89 % 1020,4 hPa 0,0 l/m 4,0 km/h (1 Bft) W-NW 292 10,5 C 12,3 C
24.10.2012 16:26 12,3 C 89 % 1020,2 hPa 0,0 l/m 4,7 km/h (1 Bft) W-SW 247 10,5 C 12,3 C
24.10.2012 16:31 12,3 C 89 % 1020,4 hPa 0,0 l/m 4,0 km/h (1 Bft) W-NW 292 10,5 C 12,3 C
24.10.2012 16:36 12,3 C 89 % 1020,3 hPa 0,0 l/m 0,0 km/h (0 Bft) W-NW 292 10,5 C 12,3 C
24.10.2012 16:41 12,2 C 89 % 1020,1 hPa 0,0 l/m 4,7 km/h (1 Bft) W-NW 292 10,4 C 12,2 C
24.10.2012 16:46 12,1 C 89 % 1020,1 hPa 0,0 l/m 2,9 km/h (1 Bft) W 270 10,3 C 12,1 C
24.10.2012 16:51 12,1 C 89 % 1020,1 hPa 0,0 l/m 0,0 km/h (0 Bft) W-NW 292 10,3 C 12,1 C
24.10.2012 16:56 12,1 C 89 % 1020,0 hPa 0,0 l/m 1,4 km/h (1 Bft) W-NW 292 10,3 C 12,1 C
24.10.2012 17:01 12,1 C 89 % 1020,0 hPa 0,0 l/m 0,0 km/h (0 Bft) W 270 10,3 C 12,1 C
24.10.2012 17:06 12,1 C 89 % 1020,0 hPa 0,0 l/m 5,0 km/h (1 Bft) NW 315 10,3 C 12,1 C
24.10.2012 17:11 12,1 C 89 % 1020,0 hPa 0,0 l/m 3,6 km/h (1 Bft) W-NW 292 10,3 C 12,1 C
24.10.2012 17:16 12,1 C 89 % 1020,0 hPa 0,0 l/m 0,0 km/h (0 Bft) W 270 10,3 C 12,1 C
24.10.2012 17:21 12,0 C 89 % 1020,0 hPa 0,0 l/m 1,4 km/h (1 Bft) W 270 10,2 C 12,0 C
24.10.2012 17:26 12,0 C 89 % 1019,9 hPa 0,0 l/m 1,4 km/h (1 Bft) W-NW 292 10,2 C 12,0 C
24.10.2012 17:31 12,0 C 89 % 1019,9 hPa 0,0 l/m 0,0 km/h (0 Bft) W 270 10,2 C 12,0 C
24.10.2012 17:36 11,9 C 89 % 1020,0 hPa 0,0 l/m 1,4 km/h (1 Bft) W 270 10,1 C 11,9 C
24.10.2012 17:41 11,9 C 89 % 1019,8 hPa 0,0 l/m 2,5 km/h (1 Bft) W-NW 292 10,1 C 11,9 C
24.10.2012 17:46 11,9 C 89 % 1020,0 hPa 0,0 l/m 1,4 km/h (1 Bft) NW 315 10,1 C 11,9 C
24.10.2012 17:51 11,9 C 89 % 1019,9 hPa 0,0 l/m 0,0 km/h (0 Bft) W 270 10,1 C 11,9 C
24.10.2012 17:56 11,9 C 90 % 1019,9 hPa 0,0 l/m 2,2 km/h (1 Bft) W-NW 292 10,3 C 11,9 C
24.10.2012 18:01 11,9 C 90 % 1019,9 hPa 0,0 l/m 0,0 km/h (0 Bft) NW 315 10,3 C 11,9 C
24.10.2012 18:06 11,8 C 90 % 1020,0 hPa 0,0 l/m 0,0 km/h (0 Bft) NW 315 10,2 C 11,8 C
24.10.2012 18:11 11,8 C 90 % 1020,0 hPa 0,0 l/m 3,2 km/h (1 Bft) N-NW 337 10,2 C 11,8 C
24.10.2012 18:16 11,8 C 90 % 1020,1 hPa 0,0 l/m 4,0 km/h (1 Bft) NW 315 10,2 C 11,8 C
24.10.2012 18:21 11,8 C 90 % 1020,1 hPa 0,0 l/m 1,1 km/h (1 Bft) NW 315 10,2 C 11,8 C
24.10.2012 18:26 11,8 C 90 % 1020,1 hPa 0,0 l/m 4,0 km/h (1 Bft) NW 315 10,2 C 11,8 C
24.10.2012 18:31 11,8 C 90 % 1020,1 hPa 0,0 l/m 2,9 km/h (1 Bft) W-NW 292 10,2 C 11,8 C
24.10.2012 18:36 11,7 C 90 % 1020,0 hPa 0,0 l/m 3,6 km/h (1 Bft) NW 315 10,1 C 11,7 C
24.10.2012 18:41 11,6 C 90 % 1020,0 hPa 0,0 l/m 0,0 km/h (0 Bft) W-NW 292 10,0 C 11,6 C
24.10.2012 18:46 11,6 C 90 % 1019,9 hPa 0,0 l/m 0,0 km/h (0 Bft) W-NW 292 10,0 C 11,6 C
24.10.2012 18:51 11,6 C 90 % 1020,0 hPa 0,0 l/m 0,0 km/h (0 Bft) W-NW 292 10,0 C 11,6 C
24.10.2012 18:56 11,6 C 90 % 1020,0 hPa 0,0 l/m 1,4 km/h (1 Bft) W 270 10,0 C 11,6 C
24.10.2012 19:01 11,6 C 91 % 1020,0 hPa 0,0 l/m 0,0 km/h (0 Bft) W-NW 292 10,2 C 11,6 C
24.10.2012 19:06 11,6 C 91 % 1020,0 hPa 0,0 l/m 0,0 km/h (0 Bft) W 270 10,2 C 11,6 C
24.10.2012 19:11 11,5 C 91 % 1019,8 hPa 0,0 l/m 0,0 km/h (0 Bft) W-NW 292 10,1 C 11,5 C
24.10.2012 19:16 11,5 C 91 % 1019,7 hPa 0,0 l/m 0,0 km/h (0 Bft) W 270 10,1 C 11,5 C
24.10.2012 19:21 11,5 C 91 % 1019,8 hPa 0,0 l/m 1,1 km/h (1 Bft) W-NW 292 10,1 C 11,5 C
24.10.2012 19:26 11,5 C 91 % 1019,8 hPa 0,0 l/m 2,9 km/h (1 Bft) W-NW 292 10,1 C 11,5 C
24.10.2012 19:31 11,4 C 91 % 1019,8 hPa 0,0 l/m 4,0 km/h (1 Bft) W 270 10,0 C 11,4 C
24.10.2012 19:36 11,4 C 91 % 1019,9 hPa 0,0 l/m 0,0 km/h (0 Bft) W-NW 292 10,0 C 11,4 C
24.10.2012 19:41 11,4 C 91 % 1019,9 hPa 0,0 l/m 2,5 km/h (1 Bft) W-NW 292 10,0 C 11,4 C
24.10.2012 19:46 11,4 C 91 % 1019,8 hPa 0,0 l/m 1,4 km/h (1 Bft) W-NW 292 10,0 C 11,4 C
24.10.2012 19:51 11,4 C 91 % 1019,9 hPa 0,0 l/m 2,9 km/h (1 Bft) W-NW 292 10,0 C 11,4 C
24.10.2012 19:56 11,3 C 91 % 1019,7 hPa 0,0 l/m 0,0 km/h (0 Bft) W-NW 292 9,9 C 11,3 C
24.10.2012 20:01 11,3 C 91 % 1019,8 hPa 0,0 l/m 4,0 km/h (1 Bft) W-NW 292 9,9 C 11,3 C
24.10.2012 20:06 11,3 C 91 % 1019,8 hPa 0,0 l/m 0,0 km/h (0 Bft) NW 315 9,9 C 11,3 C
24.10.2012 20:11 11,3 C 91 % 1019,7 hPa 0,0 l/m 1,4 km/h (1 Bft) W-NW 292 9,9 C 11,3 C
24.10.2012 20:16 11,3 C 91 % 1019,6 hPa 0,0 l/m 0,0 km/h (0 Bft) W 270 9,9 C 11,3 C
24.10.2012 20:21 11,3 C 91 % 1019,7 hPa 0,0 l/m 2,2 km/h (1 Bft) N-NW 337 9,9 C 11,3 C
24.10.2012 20:26 11,3 C 91 % 1019,6 hPa 0,0 l/m 2,5 km/h (1 Bft) W-NW 292 9,9 C 11,3 C
24.10.2012 20:31 11,3 C 91 % 1019,6 hPa 0,0 l/m 0,0 km/h (0 Bft) W-NW 292 9,9 C 11,3 C
24.10.2012 20:36 11,3 C 91 % 1019,7 hPa 0,0 l/m 0,0 km/h (0 Bft) W-NW 292 9,9 C 11,3 C
24.10.2012 20:41 11,3 C 91 % 1019,7 hPa 0,0 l/m 0,0 km/h (0 Bft) NW 315 9,9 C 11,3 C
24.10.2012 20:46 11,3 C 92 % 1019,6 hPa 0,0 l/m 0,0 km/h (0 Bft) W-NW 292 10,0 C 11,3 C
24.10.2012 20:51 11,2 C 92 % 1019,6 hPa 0,0 l/m 2,2 km/h (1 Bft) W-NW 292 9,9 C 11,2 C
24.10.2012 20:56 11,2 C 92 % 1019,6 hPa 0,0 l/m 5,8 km/h (2 Bft) NW 315 9,9 C 11,2 C
24.10.2012 21:01 11,2 C 92 % 1019,6 hPa 0,0 l/m 3,6 km/h (1 Bft) NW 315 9,9 C 11,2 C
24.10.2012 21:06 11,2 C 92 % 1019,5 hPa 0,0 l/m 1,4 km/h (1 Bft) W-NW 292 9,9 C 11,2 C
24.10.2012 21:11 11,2 C 92 % 1019,4 hPa 0,0 l/m 1,1 km/h (1 Bft) W-NW 292 9,9 C 11,2 C
24.10.2012 21:16 11,2 C 92 % 1019,4 hPa 0,0 l/m 0,0 km/h (0 Bft) W-NW 292 9,9 C 11,2 C
24.10.2012 21:21 11,2 C 92 % 1019,3 hPa 0,0 l/m 0,0 km/h (0 Bft) W 270 9,9 C 11,2 C
24.10.2012 21:26 11,2 C 92 % 1019,4 hPa 0,0 l/m 1,4 km/h (1 Bft) W-NW 292 9,9 C 11,2 C
24.10.2012 21:31 11,2 C 92 % 1019,3 hPa 0,0 l/m 3,2 km/h (1 Bft) W-NW 292 9,9 C 11,2 C
24.10.2012 21:36 11,2 C 92 % 1019,3 hPa 0,0 l/m 3,2 km/h (1 Bft) W 270 9,9 C 11,2 C
24.10.2012 21:41 11,2 C 92 % 1019,2 hPa 0,0 l/m 0,0 km/h (0 Bft) W-NW 292 9,9 C 11,2 C
24.10.2012 21:46 11,2 C 92 % 1019,2 hPa 0,0 l/m 0,0 km/h (0 Bft) W 270 9,9 C 11,2 C
24.10.2012 21:51 11,2 C 92 % 1019,3 hPa 0,0 l/m 3,2 km/h (1 Bft) W-NW 292 9,9 C 11,2 C
24.10.2012 21:56 11,2 C 92 % 1019,2 hPa 0,0 l/m 0,0 km/h (0 Bft) W-NW 292 9,9 C 11,2 C
24.10.2012 22:01 11,2 C 92 % 1019,2 hPa 0,0 l/m 0,0 km/h (0 Bft) W-NW 292 9,9 C 11,2 C
24.10.2012 22:06 11,2 C 92 % 1019,0 hPa 0,0 l/m 0,0 km/h (0 Bft) W-NW 292 9,9 C 11,2 C
24.10.2012 22:11 11,2 C 92 % 1019,0 hPa 0,0 l/m 0,0 km/h (0 Bft) W-NW 292 9,9 C 11,2 C
24.10.2012 22:16 11,2 C 92 % 1019,0 hPa 0,0 l/m 0,0 km/h (0 Bft) W-NW 292 9,9 C 11,2 C
24.10.2012 22:21 11,2 C 92 % 1019,0 hPa 0,0 l/m 0,0 km/h (0 Bft) W-NW 292 9,9 C 11,2 C
24.10.2012 22:26 11,2 C 92 % 1019,0 hPa 0,0 l/m 1,8 km/h (1 Bft) W-SW 247 9,9 C 11,2 C
24.10.2012 22:31 11,2 C 92 % 1019,0 hPa 0,0 l/m 0,0 km/h (0 Bft) W-SW 247 9,9 C 11,2 C
24.10.2012 22:36 11,1 C 92 % 1018,9 hPa 0,0 l/m 0,0 km/h (0 Bft) W-SW 247 9,8 C 11,1 C
24.10.2012 22:41 11,1 C 92 % 1018,9 hPa 0,0 l/m 4,0 km/h (1 Bft) W-SW 247 9,8 C 11,1 C
24.10.2012 22:46 11,1 C 92 % 1018,9 hPa 0,0 l/m 0,0 km/h (0 Bft) W-SW 247 9,8 C 11,1 C
24.10.2012 22:51 11,1 C 92 % 1018,9 hPa 0,0 l/m 4,7 km/h (1 Bft) W-SW 247 9,8 C 11,1 C
24.10.2012 22:56 11,1 C 92 % 1018,8 hPa 0,0 l/m 2,5 km/h (1 Bft) W-SW 247 9,8 C 11,1 C
24.10.2012 23:01 11,0 C 92 % 1018,9 hPa 0,0 l/m 2,2 km/h (1 Bft) W-SW 247 9,8 C 11,0 C
24.10.2012 23:06 11,0 C 92 % 1018,8 hPa 0,0 l/m 0,0 km/h (0 Bft) W-SW 247 9,8 C 11,0 C
24.10.2012 23:11 11,0 C 92 % 1018,8 hPa 0,0 l/m 1,4 km/h (1 Bft) W-NW 292 9,8 C 11,0 C
24.10.2012 23:16 10,9 C 92 % 1018,6 hPa 0,0 l/m 1,4 km/h (1 Bft) NW 315 9,7 C 10,9 C
24.10.2012 23:21 10,9 C 92 % 1018,6 hPa 0,0 l/m 1,8 km/h (1 Bft) NW 315 9,7 C 10,9 C
24.10.2012 23:26 10,9 C 92 % 1018,6 hPa 0,0 l/m 0,0 km/h (0 Bft) NW 315 9,7 C 10,9 C
24.10.2012 23:31 10,9 C 92 % 1018,6 hPa 0,0 l/m 0,0 km/h (0 Bft) NW 315 9,7 C 10,9 C
24.10.2012 23:36 10,9 C 92 % 1018,6 hPa 0,0 l/m 0,0 km/h (0 Bft) W-SW 247 9,7 C 10,9 C
24.10.2012 23:41 10,9 C 92 % 1018,6 hPa 0,0 l/m 1,4 km/h (1 Bft) W 270 9,7 C 10,9 C
24.10.2012 23:46 10,9 C 92 % 1018,5 hPa 0,0 l/m 0,0 km/h (0 Bft) W 270 9,7 C 10,9 C
24.10.2012 23:51 10,9 C 92 % 1018,5 hPa 0,0 l/m 2,9 km/h (1 Bft) N-NW 337 9,7 C 10,9 C
24.10.2012 23:56 10,9 C 92 % 1018,6 hPa 0,0 l/m 2,2 km/h (1 Bft) NW 315 9,7 C 10,9 C
_ Min-Zeit 06:26 13:11 23:46 - 00:31 - - 06:26 06:26
Minimum _ 10,9 C 86 % 1018,5 hPa - 0,0 km/h (0 Bft) - - 9,7 C 10,9 C
_ Max-Zeit 13:06 05:46 00:01 00:01 16:01 - - 13:06 13:06
Maximum _ 13,4 C 92 % 1026,1 hPa 0,0 l/m 6,1 km/h
W-SW (2 Bft)
- - 11,3 C 13,4 C
Durchschnitt _ 11,6 C 90 % 1021,9 hPa #0,0 l/m 1,1 km/h (0 Bft) W-NW - 10,1 C 11,6 C
(c) by David Heller